Time,TemperatureF,DewpointF,PressureIn,WindDirection,WindDirectionDegrees,WindSpeedMPH,WindSpeedGustMPH,Humidity,HourlyPrecipIn,Conditions,Clouds,dailyrainin,SoftwareType,DateUTC
2013-11-14 00:00:00,21.2,7.6,29.56,SE,135,0.0,0.0,55,0.00,,---,0.00,VWS V14.01,2013-11-14 05:00:00,
2013-11-14 00:02:00,21.2,7.6,29.56,SE,135,0.0,0.0,55,0.00,,---,0.00,VWS V14.01,2013-11-14 05:02:00,
2013-11-14 00:03:00,21.2,7.6,29.56,SE,135,1.3,2.0,55,0.00,,---,0.00,VWS V14.01,2013-11-14 05:03:00,
2013-11-14 00:04:00,21.7,8.1,29.56,SE,135,0.9,1.3,55,0.00,,---,0.00,VWS V14.01,2013-11-14 05:04:00,
2013-11-14 00:06:00,21.7,8.1,29.56,SE,135,0.0,1.1,55,0.00,,---,0.00,VWS V14.01,2013-11-14 05:06:00,
2013-11-14 00:07:00,21.9,8.2,29.56,SE,135,0.0,0.0,55,0.00,,---,0.00,VWS V14.01,2013-11-14 05:07:00,
2013-11-14 00:12:00,21.9,8.2,29.56,SE,135,1.1,1.1,55,0.00,,---,0.00,VWS V14.01,2013-11-14 05:12:00,
2013-11-14 00:16:00,21.9,8.2,29.56,SE,135,2.0,2.0,55,0.00,,---,0.00,VWS V14.01,2013-11-14 05:16:00,
2013-11-14 00:22:00,21.9,8.6,29.56,SE,135,0.0,0.0,56,0.00,,---,0.00,VWS V14.01,2013-11-14 05:22:00,
2013-11-14 00:27:00,21.9,8.6,29.56,SE,135,0.0,0.0,56,0.00,,---,0.00,VWS V14.01,2013-11-14 05:27:00,
2013-11-14 00:33:00,21.9,9.0,29.56,SE,135,0.0,0.0,57,0.00,,---,0.00,VWS V14.01,2013-11-14 05:33:00,
2013-11-14 00:39:00,21.9,8.6,29.56,SE,135,0.0,0.0,56,0.00,,---,0.00,VWS V14.01,2013-11-14 05:39:00,
2013-11-14 00:44:00,21.9,8.6,29.53,SE,135,0.0,0.0,56,0.00,,---,0.00,VWS V14.01,2013-11-14 05:44:00,
2013-11-14 00:49:00,21.9,8.6,29.53,SE,135,0.0,0.0,56,0.00,,---,0.00,VWS V14.01,2013-11-14 05:49:00,
2013-11-14 00:54:00,21.9,8.6,29.53,NW,315,0.0,0.9,56,0.00,,---,0.00,VWS V14.01,2013-11-14 05:54:00,
2013-11-14 01:00:00,21.9,8.6,29.53,North,0,0.0,1.3,56,0.00,,---,0.00,VWS V14.01,2013-11-14 06:00:00,
2013-11-14 01:05:00,22.1,8.8,29.53,WNW,292,0.0,0.0,56,0.00,,---,0.00,VWS V14.01,2013-11-14 06:05:00,
2013-11-14 01:10:00,22.1,8.8,29.53,WNW,292,0.0,0.0,56,0.00,,---,0.00,VWS V14.01,2013-11-14 06:10:00,
2013-11-14 01:15:00,22.1,8.8,29.53,West,270,0.0,0.0,56,0.00,,---,0.00,VWS V14.01,2013-11-14 06:15:00,
2013-11-14 01:21:00,22.1,8.8,29.53,West,270,0.0,0.0,56,0.00,,---,0.00,VWS V14.01,2013-11-14 06:21:00,
2013-11-14 01:26:00,22.1,9.2,29.53,WSW,248,0.0,0.0,57,0.00,,---,0.00,VWS V14.01,2013-11-14 06:26:00,
2013-11-14 01:31:00,22.1,9.2,29.53,WSW,248,0.0,0.0,57,0.00,,---,0.00,VWS V14.01,2013-11-14 06:31:00,
2013-11-14 01:37:00,21.9,9.0,29.53,WSW,248,0.0,0.0,57,0.00,,---,0.00,VWS V14.01,2013-11-14 06:37:00,
2013-11-14 01:42:00,21.9,9.0,29.53,WSW,248,0.0,0.0,57,0.00,,---,0.00,VWS V14.01,2013-11-14 06:42:00,
2013-11-14 01:47:00,21.9,9.0,29.53,WSW,248,0.0,0.0,57,0.00,,---,0.00,VWS V14.01,2013-11-14 06:47:00,
2013-11-14 01:53:00,21.9,9.4,29.53,WSW,248,0.0,0.0,58,0.00,,---,0.00,VWS V14.01,2013-11-14 06:53:00,
2013-11-14 01:58:00,21.9,9.4,29.53,WSW,248,0.0,0.0,58,0.00,,---,0.00,VWS V14.01,2013-11-14 06:58:00,
2013-11-14 02:04:00,21.9,9.4,29.53,WSW,248,0.0,0.0,58,0.00,,---,0.00,VWS V14.01,2013-11-14 07:04:00,
2013-11-14 02:10:00,22.1,9.6,29.53,WSW,248,0.0,0.0,58,0.00,,---,0.00,VWS V14.01,2013-11-14 07:10:00,
2013-11-14 02:15:00,22.1,9.6,29.53,West,270,0.9,2.0,58,0.00,,---,0.00,VWS V14.01,2013-11-14 07:15:00,
2013-11-14 02:21:00,22.3,9.8,29.53,West,270,0.0,0.0,58,0.00,,---,0.00,VWS V14.01,2013-11-14 07:21:00,
2013-11-14 02:26:00,22.3,9.8,29.53,West,270,0.0,0.0,58,0.00,,---,0.00,VWS V14.01,2013-11-14 07:26:00,
2013-11-14 02:31:00,22.3,9.8,29.53,West,270,0.0,0.0,58,0.00,,---,0.00,VWS V14.01,2013-11-14 07:31:00,
2013-11-14 02:37:00,22.5,9.9,29.53,West,270,0.0,0.0,58,0.00,,---,0.00,VWS V14.01,2013-11-14 07:37:00,
2013-11-14 02:42:00,22.6,10.1,29.53,West,270,0.0,0.0,58,0.00,,---,0.00,VWS V14.01,2013-11-14 07:42:00,
2013-11-14 02:47:00,22.6,10.1,29.53,West,270,0.0,0.0,58,0.00,,---,0.00,VWS V14.01,2013-11-14 07:47:00,
2013-11-14 02:52:00,22.8,10.3,29.53,West,270,0.0,0.0,58,0.00,,---,0.00,VWS V14.01,2013-11-14 07:52:00,
2013-11-14 02:57:00,22.8,10.3,29.50,West,270,0.0,0.0,58,0.00,,---,0.00,VWS V14.01,2013-11-14 07:57:00,
2013-11-14 03:02:00,22.8,10.3,29.50,West,270,0.0,0.0,58,0.00,,---,0.00,VWS V14.01,2013-11-14 08:02:00,
2013-11-14 03:08:00,23.0,10.4,29.50,West,270,0.0,0.0,58,0.00,,---,0.00,VWS V14.01,2013-11-14 08:08:00,
2013-11-14 03:13:00,23.0,10.4,29.50,WSW,248,0.0,0.0,58,0.00,,---,0.00,VWS V14.01,2013-11-14 08:13:00,
2013-11-14 03:25:00,23.2,10.6,29.50,WSW,248,1.3,1.3,58,0.00,,---,0.00,VWS V14.01,2013-11-14 08:25:00,
2013-11-14 03:30:00,23.2,10.6,29.50,WSW,248,0.0,0.0,58,0.00,,---,0.00,VWS V14.01,2013-11-14 08:30:00,
2013-11-14 03:36:00,23.2,10.6,29.50,WSW,248,0.0,0.0,58,0.00,,---,0.00,VWS V14.01,2013-11-14 08:36:00,
2013-11-14 03:42:00,23.2,10.2,29.50,WSW,248,0.0,0.0,57,0.00,,---,0.00,VWS V14.01,2013-11-14 08:42:00,
2013-11-14 03:47:00,23.4,10.8,29.50,WSW,248,0.0,0.0,58,0.00,,---,0.00,VWS V14.01,2013-11-14 08:47:00,
2013-11-14 03:53:00,23.5,10.9,29.50,SW,225,0.0,0.0,58,0.00,,---,0.00,VWS V14.01,2013-11-14 08:53:00,
2013-11-14 03:58:00,23.5,10.9,29.50,SSW,202,1.1,1.6,58,0.00,,---,0.00,VWS V14.01,2013-11-14 08:58:00,
2013-11-14 04:04:00,23.5,10.9,29.50,SSW,202,0.9,1.3,58,0.00,,---,0.00,VWS V14.01,2013-11-14 09:04:00,
2013-11-14 04:10:00,23.5,10.9,29.50,SSW,202,1.6,1.6,58,0.00,,---,0.00,VWS V14.01,2013-11-14 09:10:00,
2013-11-14 04:15:00,23.7,11.1,29.50,SSW,202,0.0,0.0,58,0.00,,---,0.00,VWS V14.01,2013-11-14 09:15:00,
2013-11-14 04:20:00,23.7,11.1,29.50,SSW,202,0.9,0.9,58,0.00,,---,0.00,VWS V14.01,2013-11-14 09:20:00,
2013-11-14 04:26:00,23.9,11.7,29.50,SSW,202,0.0,0.0,59,0.00,,---,0.00,VWS V14.01,2013-11-14 09:26:00,
2013-11-14 04:32:00,23.9,11.7,29.50,ESE,112,1.3,1.3,59,0.00,,---,0.00,VWS V14.01,2013-11-14 09:32:00,
2013-11-14 04:38:00,23.9,11.7,29.50,ESE,112,1.1,1.1,59,0.00,,---,0.00,VWS V14.01,2013-11-14 09:38:00,
2013-11-14 04:43:00,23.9,11.7,29.50,ESE,112,0.0,0.0,59,0.00,,---,0.00,VWS V14.01,2013-11-14 09:43:00,
2013-11-14 04:49:00,24.1,11.8,29.50,SSW,202,0.0,0.0,59,0.00,,---,0.00,VWS V14.01,2013-11-14 09:49:00,
2013-11-14 04:54:00,24.1,11.8,29.50,NNW,338,0.0,0.9,59,0.00,,---,0.00,VWS V14.01,2013-11-14 09:54:00,
2013-11-14 05:00:00,24.1,11.8,29.50,NW,315,0.0,0.0,59,0.00,,---,0.00,VWS V14.01,2013-11-14 10:00:00,
2013-11-14 05:06:00,24.3,12.0,29.50,NNW,338,0.0,0.0,59,0.00,,---,0.00,VWS V14.01,2013-11-14 10:06:00,
2013-11-14 05:11:00,24.3,12.0,29.50,North,0,0.0,0.0,59,0.00,,---,0.00,VWS V14.01,2013-11-14 10:11:00,
2013-11-14 05:17:00,24.3,11.6,29.50,North,0,0.0,0.0,58,0.00,,---,0.00,VWS V14.01,2013-11-14 10:17:00,
2013-11-14 05:23:00,24.3,11.6,29.50,North,0,0.0,0.0,58,0.00,,---,0.00,VWS V14.01,2013-11-14 10:23:00,
2013-11-14 05:28:00,24.1,11.5,29.50,SSW,202,2.2,2.2,58,0.00,,---,0.00,VWS V14.01,2013-11-14 10:28:00,
2013-11-14 05:33:00,23.7,11.1,29.50,SSW,202,0.0,0.0,58,0.00,,---,0.00,VWS V14.01,2013-11-14 10:33:00,
2013-11-14 05:39:00,23.5,10.9,29.50,SSW,202,0.0,0.0,58,0.00,,---,0.00,VWS V14.01,2013-11-14 10:39:00,
2013-11-14 05:45:00,23.4,10.8,29.47,SSW,202,0.0,0.0,58,0.00,,---,0.00,VWS V14.01,2013-11-14 10:45:00,
2013-11-14 05:50:00,23.4,11.2,29.47,SSW,202,1.6,2.2,59,0.00,,---,0.00,VWS V14.01,2013-11-14 10:50:00,
2013-11-14 05:56:00,23.4,11.2,29.50,SSW,202,0.0,0.0,59,0.00,,---,0.00,VWS V14.01,2013-11-14 10:56:00,
2013-11-14 06:02:00,23.4,11.2,29.50,SSW,202,0.0,0.0,59,0.00,,---,0.00,VWS V14.01,2013-11-14 11:02:00,
2013-11-14 06:07:00,23.4,11.2,29.50,SSW,202,0.0,0.0,59,0.00,,---,0.00,VWS V14.01,2013-11-14 11:07:00,
2013-11-14 06:12:00,23.2,11.0,29.50,SSW,202,1.3,2.0,59,0.00,,---,0.00,VWS V14.01,2013-11-14 11:12:00,
2013-11-14 06:18:00,23.0,10.8,29.50,SSW,202,1.1,2.0,59,0.00,,---,0.00,VWS V14.01,2013-11-14 11:18:00,
2013-11-14 06:23:00,22.8,10.6,29.50,SSW,202,1.6,1.6,59,0.00,,---,0.00,VWS V14.01,2013-11-14 11:23:00,
2013-11-14 06:28:00,22.6,10.9,29.50,SSW,202,0.0,0.0,60,0.00,,---,0.00,VWS V14.01,2013-11-14 11:28:00,
2013-11-14 06:34:00,22.3,10.5,29.50,SSW,202,0.0,0.0,60,0.00,,---,0.00,VWS V14.01,2013-11-14 11:34:00,
2013-11-14 06:39:00,22.1,10.7,29.50,SW,225,0.0,0.0,61,0.00,,---,0.00,VWS V14.01,2013-11-14 11:39:00,
2013-11-14 06:45:00,21.9,10.6,29.50,SW,225,0.0,0.0,61,0.00,,---,0.00,VWS V14.01,2013-11-14 11:45:00,
2013-11-14 06:50:00,21.9,10.6,29.50,SW,225,0.0,0.0,61,0.00,,---,0.00,VWS V14.01,2013-11-14 11:50:00,
2013-11-14 06:56:00,21.7,10.4,29.50,SW,225,0.0,0.0,61,0.00,,---,0.00,VWS V14.01,2013-11-14 11:56:00,
2013-11-14 07:02:00,21.7,10.7,29.50,SW,225,0.0,0.0,62,0.00,,---,0.00,VWS V14.01,2013-11-14 12:02:00,
2013-11-14 07:07:00,21.6,10.6,29.50,SW,225,0.0,0.0,62,0.00,,---,0.00,VWS V14.01,2013-11-14 12:07:00,
2013-11-14 07:13:00,21.4,10.4,29.50,SW,225,1.3,1.3,62,0.00,,---,0.00,VWS V14.01,2013-11-14 12:13:00,
2013-11-14 07:18:00,21.4,10.4,29.50,SW,225,0.0,1.3,62,0.00,,---,0.00,VWS V14.01,2013-11-14 12:18:00,
2013-11-14 07:24:00,21.4,10.8,29.50,SW,225,1.1,1.6,63,0.00,,---,0.00,VWS V14.01,2013-11-14 12:24:00,
2013-11-14 07:29:00,21.4,10.8,29.50,SW,225,2.2,2.2,63,0.00,,---,0.00,VWS V14.01,2013-11-14 12:29:00,
2013-11-14 07:34:00,21.6,10.9,29.50,SW,225,2.0,2.0,63,0.00,,---,0.00,VWS V14.01,2013-11-14 12:34:00,
2013-11-14 07:39:00,21.9,11.3,29.50,SW,225,0.0,1.3,63,0.00,,---,0.00,VWS V14.01,2013-11-14 12:39:00,
2013-11-14 07:44:00,22.1,11.4,29.50,SW,225,2.5,2.5,63,0.00,,---,0.00,VWS V14.01,2013-11-14 12:44:00,
2013-11-14 07:50:00,22.3,12.0,29.50,SW,225,0.0,0.0,64,0.00,,---,0.00,VWS V14.01,2013-11-14 12:50:00,
2013-11-14 07:55:00,22.5,12.1,29.50,SW,225,0.0,1.1,64,0.00,,---,0.00,VWS V14.01,2013-11-14 12:55:00,
2013-11-14 08:01:00,22.8,12.5,29.50,SW,225,0.0,0.0,64,0.00,,---,0.00,VWS V14.01,2013-11-14 13:01:00,
2013-11-14 08:07:00,23.2,12.5,29.50,SW,225,1.3,2.0,63,0.00,,---,0.00,VWS V14.01,2013-11-14 13:07:00,
2013-11-14 08:12:00,23.5,12.8,29.50,SW,225,0.0,0.0,63,0.00,,---,0.00,VWS V14.01,2013-11-14 13:12:00,
2013-11-14 08:18:00,23.9,12.8,29.50,SW,225,0.0,0.0,62,0.00,,---,0.00,VWS V14.01,2013-11-14 13:18:00,
2013-11-14 08:23:00,24.4,13.3,29.50,SW,225,0.0,0.0,62,0.00,,---,0.00,VWS V14.01,2013-11-14 13:23:00,
2013-11-14 08:28:00,24.6,13.5,29.50,SW,225,0.0,0.0,62,0.00,,---,0.00,VWS V14.01,2013-11-14 13:28:00,
2013-11-14 08:33:00,24.8,13.3,29.50,SW,225,0.0,0.0,61,0.00,,---,0.00,VWS V14.01,2013-11-14 13:33:00,
2013-11-14 08:38:00,25.3,13.4,29.50,SW,225,0.0,0.0,60,0.00,,---,0.00,VWS V14.01,2013-11-14 13:38:00,
2013-11-14 08:43:00,25.7,13.8,29.50,SW,225,0.0,0.0,60,0.00,,---,0.00,VWS V14.01,2013-11-14 13:43:00,
2013-11-14 08:48:00,26.1,14.1,29.50,SW,225,0.0,0.0,60,0.00,,---,0.00,VWS V14.01,2013-11-14 13:48:00,
2013-11-14 08:53:00,26.2,13.9,29.50,SW,225,0.0,0.0,59,0.00,,---,0.00,VWS V14.01,2013-11-14 13:53:00,
2013-11-14 08:59:00,26.8,14.0,29.50,SW,225,0.0,0.0,58,0.00,,---,0.00,VWS V14.01,2013-11-14 13:59:00,
2013-11-14 09:04:00,27.1,13.9,29.50,SSE,158,2.0,2.2,57,0.00,,---,0.00,VWS V14.01,2013-11-14 14:04:00,
2013-11-14 09:09:00,27.7,14.4,29.50,SSE,158,0.0,0.0,57,0.00,,---,0.00,VWS V14.01,2013-11-14 14:09:00,
2013-11-14 09:14:00,28.0,14.8,29.50,ENE,68,0.0,1.1,57,0.00,,---,0.00,VWS V14.01,2013-11-14 14:14:00,
2013-11-14 09:20:00,28.6,14.9,29.50,SE,135,2.0,2.2,56,0.00,,---,0.00,VWS V14.01,2013-11-14 14:20:00,
2013-11-14 09:25:00,28.9,14.8,29.50,East,90,0.0,0.0,55,0.00,,---,0.00,VWS V14.01,2013-11-14 14:25:00,
2013-11-14 09:32:00,29.3,15.1,29.50,East,90,0.0,1.6,55,0.00,,---,0.00,VWS V14.01,2013-11-14 14:32:00,
2013-11-14 09:38:00,29.8,15.2,29.50,ENE,68,2.7,2.7,54,0.00,,---,0.00,VWS V14.01,2013-11-14 14:38:00,
2013-11-14 09:43:00,30.2,15.6,29.50,East,90,1.1,3.1,54,0.00,,---,0.00,VWS V14.01,2013-11-14 14:43:00,
2013-11-14 09:48:00,30.4,15.7,29.50,East,90,0.0,1.3,54,0.00,,---,0.00,VWS V14.01,2013-11-14 14:48:00,
2013-11-14 09:53:00,30.7,15.6,29.50,East,90,0.0,0.0,53,0.00,,---,0.00,VWS V14.01,2013-11-14 14:53:00,
2013-11-14 09:58:00,31.3,16.1,29.50,NW,315,0.0,2.0,53,0.00,,---,0.00,VWS V14.01,2013-11-14 14:58:00,
2013-11-14 10:03:00,31.6,16.5,29.50,NE,45,0.9,1.6,53,0.00,,---,0.00,VWS V14.01,2013-11-14 15:03:00,
2013-11-14 10:08:00,32.2,17.0,29.50,NNW,338,0.0,0.0,53,0.00,,---,0.00,VWS V14.01,2013-11-14 15:08:00,
2013-11-14 10:13:00,32.5,16.9,29.50,North,0,0.0,0.0,52,0.00,,---,0.00,VWS V14.01,2013-11-14 15:13:00,
2013-11-14 10:19:00,32.9,17.2,29.50,NNE,22,0.0,1.6,52,0.00,,---,0.00,VWS V14.01,2013-11-14 15:19:00,
2013-11-14 10:24:00,33.4,17.7,29.50,NNE,22,1.6,1.6,52,0.00,,---,0.00,VWS V14.01,2013-11-14 15:24:00,
2013-11-14 10:29:00,33.8,17.6,29.50,East,90,0.0,2.0,51,0.00,,---,0.00,VWS V14.01,2013-11-14 15:29:00,
2013-11-14 10:34:00,34.2,17.9,29.50,South,180,1.6,1.6,51,0.00,,---,0.00,VWS V14.01,2013-11-14 15:34:00,
2013-11-14 10:39:00,34.3,17.6,29.50,South,180,0.0,0.0,50,0.00,,---,0.00,VWS V14.01,2013-11-14 15:39:00,
2013-11-14 10:44:00,34.7,18.0,29.50,ENE,68,0.0,0.0,50,0.00,,---,0.00,VWS V14.01,2013-11-14 15:44:00,
2013-11-14 10:49:00,35.1,18.3,29.50,East,90,1.3,2.5,50,0.00,,---,0.00,VWS V14.01,2013-11-14 15:49:00,
2013-11-14 10:54:00,35.4,18.6,29.50,ENE,68,2.9,2.9,50,0.00,,---,0.00,VWS V14.01,2013-11-14 15:54:00,
2013-11-14 10:59:00,35.6,18.8,29.50,South,180,1.1,1.3,50,0.00,,---,0.00,VWS V14.01,2013-11-14 15:59:00,
2013-11-14 11:06:00,36.1,18.8,29.50,WSW,248,1.3,2.7,49,0.00,,---,0.00,VWS V14.01,2013-11-14 16:06:00,
2013-11-14 11:12:00,36.7,19.3,29.47,ENE,68,1.6,2.9,49,0.00,,---,0.00,VWS V14.01,2013-11-14 16:12:00,
2013-11-14 11:17:00,37.0,19.7,29.47,East,90,1.3,1.3,49,0.00,,---,0.00,VWS V14.01,2013-11-14 16:17:00,
2013-11-14 11:22:00,37.6,19.7,29.47,NE,45,0.0,0.0,48,0.00,,---,0.00,VWS V14.01,2013-11-14 16:22:00,
2013-11-14 11:27:00,37.8,19.9,29.47,NNW,338,0.0,0.0,48,0.00,,---,0.00,VWS V14.01,2013-11-14 16:27:00,
2013-11-14 11:32:00,38.1,20.2,29.47,ENE,68,0.0,2.5,48,0.00,,---,0.00,VWS V14.01,2013-11-14 16:32:00,
2013-11-14 11:37:00,38.5,20.0,29.47,WNW,292,2.7,2.7,47,0.00,,---,0.00,VWS V14.01,2013-11-14 16:37:00,
2013-11-14 11:42:00,38.8,20.4,29.47,South,180,0.0,3.8,47,0.00,,---,0.00,VWS V14.01,2013-11-14 16:42:00,
2013-11-14 11:47:00,39.4,20.8,29.47,ENE,68,2.2,2.7,47,0.00,,---,0.00,VWS V14.01,2013-11-14 16:47:00,
2013-11-14 11:53:00,39.7,20.7,29.47,ENE,68,2.5,2.7,46,0.00,,---,0.00,VWS V14.01,2013-11-14 16:53:00,
2013-11-14 11:58:00,40.3,20.6,29.47,SSE,158,2.7,2.7,45,0.00,,---,0.00,VWS V14.01,2013-11-14 16:58:00,
2013-11-14 12:03:00,40.5,21.3,29.47,NE,45,2.0,2.7,46,0.00,,---,0.00,VWS V14.01,2013-11-14 17:03:00,
2013-11-14 12:08:00,40.8,21.1,29.47,ENE,68,1.6,2.0,45,0.00,,---,0.00,VWS V14.01,2013-11-14 17:08:00,
2013-11-14 12:14:00,41.4,21.6,29.47,NE,45,1.3,4.0,45,0.00,,---,0.00,VWS V14.01,2013-11-14 17:14:00,
2013-11-14 12:19:00,41.5,21.3,29.47,NNE,22,2.5,2.5,44,0.00,,---,0.00,VWS V14.01,2013-11-14 17:19:00,
2013-11-14 12:24:00,42.1,21.8,29.47,ENE,68,4.5,4.5,44,0.00,,---,0.00,VWS V14.01,2013-11-14 17:24:00,
2013-11-14 12:29:00,42.3,21.9,29.47,NNE,22,2.5,3.1,44,0.00,,---,0.00,VWS V14.01,2013-11-14 17:29:00,
2013-11-14 12:34:00,42.6,22.2,29.47,ENE,68,2.5,2.7,44,0.00,,---,0.00,VWS V14.01,2013-11-14 17:34:00,
2013-11-14 12:39:00,42.8,21.9,29.47,NNE,22,1.6,1.6,43,0.00,,---,0.00,VWS V14.01,2013-11-14 17:39:00,
2013-11-14 12:45:00,42.8,21.9,29.47,SSW,202,2.0,2.0,43,0.00,,---,0.00,VWS V14.01,2013-11-14 17:45:00,
2013-11-14 12:50:00,42.8,21.9,29.47,SSW,202,2.0,2.7,43,0.00,,---,0.00,VWS V14.01,2013-11-14 17:50:00,
2013-11-14 12:55:00,42.8,21.9,29.47,WSW,248,0.0,0.0,43,0.00,,---,0.00,VWS V14.01,2013-11-14 17:55:00,
2013-11-14 13:00:00,43.0,22.0,29.47,WSW,248,0.0,0.9,43,0.00,,---,0.00,VWS V14.01,2013-11-14 18:00:00,
2013-11-14 13:05:00,43.2,22.2,29.47,NNW,338,1.1,1.1,43,0.00,,---,0.00,VWS V14.01,2013-11-14 18:05:00,
2013-11-14 13:10:00,43.2,22.2,29.47,WSW,248,0.9,1.1,43,0.00,,---,0.00,VWS V14.01,2013-11-14 18:10:00,
2013-11-14 13:15:00,43.2,22.2,29.47,SW,225,0.0,2.2,43,0.00,,---,0.00,VWS V14.01,2013-11-14 18:15:00,
2013-11-14 13:20:00,43.2,22.2,29.47,East,90,2.9,2.9,43,0.00,,---,0.00,VWS V14.01,2013-11-14 18:20:00,
2013-11-14 13:25:00,43.3,22.4,29.47,East,90,0.0,0.0,43,0.00,,---,0.00,VWS V14.01,2013-11-14 18:25:00,
2013-11-14 13:30:00,43.3,22.4,29.47,East,90,0.0,0.0,43,0.00,,---,0.00,VWS V14.01,2013-11-14 18:30:00,
2013-11-14 13:35:00,43.5,22.5,29.47,East,90,2.5,2.7,43,0.00,,---,0.00,VWS V14.01,2013-11-14 18:35:00,
2013-11-14 13:40:00,43.5,22.0,29.47,East,90,3.1,3.1,42,0.00,,---,0.00,VWS V14.01,2013-11-14 18:40:00,
2013-11-14 13:46:00,43.9,22.3,29.47,NNE,22,1.6,1.6,42,0.00,,---,0.00,VWS V14.01,2013-11-14 18:46:00,
2013-11-14 13:52:00,43.9,22.3,29.47,NNE,22,0.0,1.3,42,0.00,,---,0.00,VWS V14.01,2013-11-14 18:52:00,
2013-11-14 13:57:00,44.1,22.5,29.47,WNW,292,0.0,0.0,42,0.00,,---,0.00,VWS V14.01,2013-11-14 18:57:00,
2013-11-14 14:02:00,44.1,22.5,29.47,NW,315,1.1,1.1,42,0.00,,---,0.00,VWS V14.01,2013-11-14 19:02:00,
2013-11-14 14:08:00,44.2,22.6,29.47,NNE,22,0.0,2.5,42,0.00,,---,0.00,VWS V14.01,2013-11-14 19:08:00,
2013-11-14 14:15:00,44.2,22.6,29.47,NNE,22,0.0,0.0,42,0.00,,---,0.00,VWS V14.01,2013-11-14 19:15:00,
2013-11-14 14:21:00,44.1,22.5,29.47,NNE,22,0.0,1.6,42,0.00,,---,0.00,VWS V14.01,2013-11-14 19:21:00,
2013-11-14 14:26:00,44.2,22.6,29.47,NNW,338,1.1,1.6,42,0.00,,---,0.00,VWS V14.01,2013-11-14 19:26:00,
2013-11-14 14:31:00,44.2,22.6,29.47,ESE,112,2.7,2.7,42,0.00,,---,0.00,VWS V14.01,2013-11-14 19:31:00,
2013-11-14 14:37:00,44.4,22.8,29.47,NNW,338,0.0,0.0,42,0.00,,---,0.00,VWS V14.01,2013-11-14 19:37:00,
2013-11-14 14:42:00,44.6,22.4,29.47,NNW,338,0.0,0.0,41,0.00,,---,0.00,VWS V14.01,2013-11-14 19:42:00,
2013-11-14 14:48:00,44.4,22.2,29.47,NNW,338,0.0,0.0,41,0.00,,---,0.00,VWS V14.01,2013-11-14 19:48:00,
2013-11-14 14:53:00,44.2,22.0,29.47,NNW,338,0.0,0.0,41,0.00,,---,0.00,VWS V14.01,2013-11-14 19:53:00,
2013-11-14 14:59:00,44.1,21.9,29.47,NNW,338,0.0,0.0,41,0.00,,---,0.00,VWS V14.01,2013-11-14 19:59:00,
2013-11-14 15:04:00,44.2,22.0,29.47,NNW,338,0.0,0.0,41,0.00,,---,0.00,VWS V14.01,2013-11-14 20:04:00,
2013-11-14 15:10:00,44.1,21.9,29.47,NNW,338,0.0,0.0,41,0.00,,---,0.00,VWS V14.01,2013-11-14 20:10:00,
2013-11-14 15:16:00,43.7,21.6,29.47,NNW,338,0.0,0.0,41,0.00,,---,0.00,VWS V14.01,2013-11-14 20:16:00,
2013-11-14 15:21:00,43.3,21.2,29.47,NNW,338,0.0,0.0,41,0.00,,---,0.00,VWS V14.01,2013-11-14 20:21:00,
2013-11-14 15:27:00,42.8,21.3,29.47,NNW,338,0.0,0.0,42,0.00,,---,0.00,VWS V14.01,2013-11-14 20:27:00,
2013-11-14 15:32:00,42.4,21.0,29.47,NNW,338,0.0,0.0,42,0.00,,---,0.00,VWS V14.01,2013-11-14 20:32:00,
2013-11-14 15:38:00,41.7,20.3,29.47,NNW,338,0.0,0.0,42,0.00,,---,0.00,VWS V14.01,2013-11-14 20:38:00,
2013-11-14 15:44:00,41.2,19.9,29.47,NNW,338,0.0,0.0,42,0.00,,---,0.00,VWS V14.01,2013-11-14 20:44:00,
2013-11-14 15:49:00,40.6,19.9,29.47,NNW,338,0.0,0.0,43,0.00,,---,0.00,VWS V14.01,2013-11-14 20:49:00,
2013-11-14 15:54:00,40.1,19.4,29.47,West,270,1.3,1.3,43,0.00,,---,0.00,VWS V14.01,2013-11-14 20:54:00,
2013-11-14 16:00:00,39.6,18.9,29.47,West,270,0.0,0.0,43,0.00,,---,0.00,VWS V14.01,2013-11-14 21:00:00,
2013-11-14 16:05:00,39.0,19.0,29.47,West,270,0.0,0.0,44,0.00,,---,0.00,VWS V14.01,2013-11-14 21:05:00,
2013-11-14 16:10:00,38.5,18.5,29.47,West,270,0.0,0.0,44,0.00,,---,0.00,VWS V14.01,2013-11-14 21:10:00,
2013-11-14 16:16:00,37.9,18.5,29.50,WSW,248,1.1,1.1,45,0.00,,---,0.00,VWS V14.01,2013-11-14 21:16:00,
2013-11-14 16:22:00,37.6,18.2,29.50,WSW,248,0.0,0.0,45,0.00,,---,0.00,VWS V14.01,2013-11-14 21:22:00,
2013-11-14 16:28:00,36.9,18.5,29.50,WSW,248,0.0,0.0,47,0.00,,---,0.00,VWS V14.01,2013-11-14 21:28:00,
2013-11-14 16:33:00,36.3,18.0,29.50,WSW,248,0.0,0.0,47,0.00,,---,0.00,VWS V14.01,2013-11-14 21:33:00,
2013-11-14 16:38:00,35.8,18.0,29.50,WSW,248,1.3,2.0,48,0.00,,---,0.00,VWS V14.01,2013-11-14 21:38:00,
2013-11-14 16:43:00,35.4,18.2,29.50,WSW,248,0.0,0.0,49,0.00,,---,0.00,VWS V14.01,2013-11-14 21:43:00,
2013-11-14 16:48:00,34.9,18.1,29.50,WSW,248,1.1,1.6,50,0.00,,---,0.00,VWS V14.01,2013-11-14 21:48:00,
2013-11-14 16:53:00,34.5,17.8,29.50,WSW,248,1.3,1.3,50,0.00,,---,0.00,VWS V14.01,2013-11-14 21:53:00,
2013-11-14 16:58:00,34.3,17.6,29.50,WSW,248,0.0,1.6,50,0.00,,---,0.00,VWS V14.01,2013-11-14 21:58:00,
2013-11-14 17:03:00,34.0,17.8,29.50,SSW,202,2.2,2.5,51,0.00,,---,0.00,VWS V14.01,2013-11-14 22:03:00,
2013-11-14 17:08:00,33.8,17.6,29.50,SSW,202,0.0,0.0,51,0.00,,---,0.00,VWS V14.01,2013-11-14 22:08:00,
2013-11-14 17:13:00,33.1,17.4,29.50,SSW,202,0.0,0.0,52,0.00,,---,0.00,VWS V14.01,2013-11-14 22:13:00,
2013-11-14 17:18:00,33.1,17.4,29.50,SSW,202,0.0,0.0,52,0.00,,---,0.00,VWS V14.01,2013-11-14 22:18:00,
2013-11-14 17:23:00,32.5,17.3,29.50,SSW,202,0.0,0.0,53,0.00,,---,0.00,VWS V14.01,2013-11-14 22:23:00,
2013-11-14 17:28:00,32.2,17.0,29.50,SSW,202,0.0,0.0,53,0.00,,---,0.00,VWS V14.01,2013-11-14 22:28:00,
2013-11-14 17:33:00,31.8,16.6,29.50,SSW,202,0.0,0.0,53,0.00,,---,0.00,VWS V14.01,2013-11-14 22:33:00,
2013-11-14 17:38:00,31.5,16.8,29.50,SSW,202,0.0,0.0,54,0.00,,---,0.00,VWS V14.01,2013-11-14 22:38:00,
2013-11-14 17:43:00,31.6,16.9,29.53,SSW,202,0.0,0.0,54,0.00,,---,0.00,VWS V14.01,2013-11-14 22:43:00,
2013-11-14 17:48:00,31.6,16.9,29.53,SSW,202,0.0,0.0,54,0.00,,---,0.00,VWS V14.01,2013-11-14 22:48:00,
2013-11-14 17:54:00,31.3,17.0,29.53,SSW,202,0.0,0.0,55,0.00,,---,0.00,VWS V14.01,2013-11-14 22:54:00,
2013-11-14 17:59:00,31.1,16.8,29.50,SSW,202,0.0,0.0,55,0.00,,---,0.00,VWS V14.01,2013-11-14 22:59:00,
2013-11-14 18:05:00,31.1,16.8,29.50,SSW,202,0.0,0.0,55,0.00,,---,0.00,VWS V14.01,2013-11-14 23:05:00,
2013-11-14 18:10:00,30.7,16.9,29.50,SSW,202,0.0,0.0,56,0.00,,---,0.00,VWS V14.01,2013-11-14 23:10:00,
2013-11-14 18:15:00,30.6,16.7,29.53,SSW,202,0.0,0.0,56,0.00,,---,0.00,VWS V14.01,2013-11-14 23:15:00,
2013-11-14 18:21:00,30.2,16.8,29.53,SSW,202,0.0,0.0,57,0.00,,---,0.00,VWS V14.01,2013-11-14 23:21:00,
2013-11-14 18:26:00,29.7,16.3,29.53,SSW,202,0.0,0.0,57,0.00,,---,0.00,VWS V14.01,2013-11-14 23:26:00,
2013-11-14 18:31:00,29.5,16.1,29.53,SSW,202,0.0,0.0,57,0.00,,---,0.00,VWS V14.01,2013-11-14 23:31:00,
2013-11-14 18:36:00,29.3,16.4,29.53,SSW,202,0.0,0.0,58,0.00,,---,0.00,VWS V14.01,2013-11-14 23:36:00,
2013-11-14 18:42:00,28.9,16.0,29.53,SSW,202,0.0,0.0,58,0.00,,---,0.00,VWS V14.01,2013-11-14 23:42:00,
2013-11-14 18:47:00,28.9,16.0,29.53,SSW,202,0.0,0.0,58,0.00,,---,0.00,VWS V14.01,2013-11-14 23:47:00,
2013-11-14 18:53:00,28.8,15.9,29.53,SSW,202,0.0,0.0,58,0.00,,---,0.00,VWS V14.01,2013-11-14 23:53:00,
2013-11-14 18:59:00,28.6,16.1,29.53,SSW,202,0.0,0.0,59,0.00,,---,0.00,VWS V14.01,2013-11-14 23:59:00,
2013-11-14 19:04:00,28.4,15.9,29.53,SSW,202,0.0,0.0,59,0.00,,---,0.00,VWS V14.01,2013-11-15 00:04:00,
2013-11-14 19:10:00,28.2,16.1,29.53,SSW,202,0.0,0.0,60,0.00,,---,0.00,VWS V14.01,2013-11-15 00:10:00,
2013-11-14 19:15:00,28.2,16.1,29.53,SSW,202,0.0,0.0,60,0.00,,---,0.00,VWS V14.01,2013-11-15 00:15:00,
2013-11-14 19:20:00,28.0,16.0,29.53,SSW,202,0.0,0.0,60,0.00,,---,0.00,VWS V14.01,2013-11-15 00:20:00,
2013-11-14 19:25:00,27.9,15.8,29.53,SSW,202,0.0,0.0,60,0.00,,---,0.00,VWS V14.01,2013-11-15 00:25:00,
2013-11-14 19:31:00,27.9,16.2,29.56,SSW,202,0.0,0.0,61,0.00,,---,0.00,VWS V14.01,2013-11-15 00:31:00,
2013-11-14 19:36:00,28.0,16.3,29.56,SSW,202,0.0,0.0,61,0.00,,---,0.00,VWS V14.01,2013-11-15 00:36:00,
2013-11-14 19:42:00,27.9,16.5,29.56,SSW,202,0.0,0.0,62,0.00,,---,0.00,VWS V14.01,2013-11-15 00:42:00,
2013-11-14 19:48:00,27.5,16.2,29.56,SSW,202,0.0,0.0,62,0.00,,---,0.00,VWS V14.01,2013-11-15 00:48:00,
2013-11-14 19:53:00,27.5,16.2,29.56,SSW,202,0.0,0.0,62,0.00,,---,0.00,VWS V14.01,2013-11-15 00:53:00,
2013-11-14 19:58:00,27.3,16.0,29.56,SSW,202,0.0,0.0,62,0.00,,---,0.00,VWS V14.01,2013-11-15 00:58:00,
2013-11-14 20:03:00,27.1,16.2,29.56,SSW,202,0.0,0.0,63,0.00,,---,0.00,VWS V14.01,2013-11-15 01:03:00,
2013-11-14 20:08:00,27.0,16.1,29.56,SSW,202,0.0,0.0,63,0.00,,---,0.00,VWS V14.01,2013-11-15 01:08:00,
2013-11-14 20:13:00,27.0,16.4,29.56,SSW,202,0.0,0.0,64,0.00,,---,0.00,VWS V14.01,2013-11-15 01:13:00,
2013-11-14 20:18:00,27.1,16.6,29.56,SSW,202,0.0,0.0,64,0.00,,---,0.00,VWS V14.01,2013-11-15 01:18:00,
2013-11-14 20:23:00,27.0,16.4,29.56,SSW,202,0.0,0.0,64,0.00,,---,0.00,VWS V14.01,2013-11-15 01:23:00,
2013-11-14 20:28:00,26.8,16.2,29.56,SSW,202,0.0,0.0,64,0.00,,---,0.00,VWS V14.01,2013-11-15 01:28:00,
2013-11-14 20:33:00,26.8,16.2,29.56,SSW,202,0.0,0.0,64,0.00,,---,0.00,VWS V14.01,2013-11-15 01:33:00,
2013-11-14 20:38:00,26.6,16.4,29.56,SSW,202,0.0,0.0,65,0.00,,---,0.00,VWS V14.01,2013-11-15 01:38:00,
2013-11-14 20:43:00,26.6,16.4,29.56,SSW,202,0.0,0.0,65,0.00,,---,0.00,VWS V14.01,2013-11-15 01:43:00,
2013-11-14 20:48:00,26.6,16.4,29.56,SSW,202,0.0,0.0,65,0.00,,---,0.00,VWS V14.01,2013-11-15 01:48:00,
2013-11-14 20:53:00,26.4,16.3,29.56,SSW,202,0.0,0.0,65,0.00,,---,0.00,VWS V14.01,2013-11-15 01:53:00,
2013-11-14 20:58:00,26.6,16.8,29.56,SSW,202,0.0,0.0,66,0.00,,---,0.00,VWS V14.01,2013-11-15 01:58:00,
2013-11-14 21:03:00,27.0,17.5,29.56,SW,225,0.0,0.0,67,0.00,,---,0.00,VWS V14.01,2013-11-15 02:03:00,
2013-11-14 21:08:00,27.0,17.1,29.56,SW,225,0.0,0.0,66,0.00,,---,0.00,VWS V14.01,2013-11-15 02:08:00,
2013-11-14 21:13:00,26.8,17.0,29.56,SW,225,0.0,0.0,66,0.00,,---,0.00,VWS V14.01,2013-11-15 02:13:00,
2013-11-14 21:19:00,26.6,16.8,29.56,SW,225,0.0,0.0,66,0.00,,---,0.00,VWS V14.01,2013-11-15 02:19:00,
2013-11-14 21:24:00,26.4,16.6,29.56,SW,225,0.0,0.0,66,0.00,,---,0.00,VWS V14.01,2013-11-15 02:24:00,
2013-11-14 21:30:00,26.2,16.4,29.56,SW,225,0.0,0.0,66,0.00,,---,0.00,VWS V14.01,2013-11-15 02:30:00,
2013-11-14 21:36:00,26.1,17.0,29.56,SW,225,0.0,0.0,68,0.00,,---,0.00,VWS V14.01,2013-11-15 02:36:00,
2013-11-14 21:41:00,26.1,17.0,29.56,SW,225,0.0,0.0,68,0.00,,---,0.00,VWS V14.01,2013-11-15 02:41:00,
2013-11-14 21:46:00,25.9,16.5,29.56,SW,225,0.0,0.0,67,0.00,,---,0.00,VWS V14.01,2013-11-15 02:46:00,
2013-11-14 21:51:00,25.9,16.5,29.56,SW,225,0.0,0.0,67,0.00,,---,0.00,VWS V14.01,2013-11-15 02:51:00,
2013-11-14 21:56:00,25.7,16.6,29.56,SW,225,0.0,0.0,68,0.00,,---,0.00,VWS V14.01,2013-11-15 02:56:00,
2013-11-14 22:01:00,25.5,16.4,29.56,SW,225,0.0,0.0,68,0.00,,---,0.00,VWS V14.01,2013-11-15 03:01:00,
2013-11-14 22:06:00,25.3,16.3,29.56,SW,225,0.0,0.0,68,0.00,,---,0.00,VWS V14.01,2013-11-15 03:06:00,
2013-11-14 22:12:00,25.3,16.3,29.56,SW,225,0.0,0.0,68,0.00,,---,0.00,VWS V14.01,2013-11-15 03:12:00,
2013-11-14 22:17:00,25.3,16.3,29.56,SW,225,0.0,0.0,68,0.00,,---,0.00,VWS V14.01,2013-11-15 03:17:00,
2013-11-14 22:22:00,25.3,16.6,29.56,SW,225,0.0,0.0,69,0.00,,---,0.00,VWS V14.01,2013-11-15 03:22:00,
2013-11-14 22:27:00,25.3,16.6,29.56,SW,225,0.0,0.0,69,0.00,,---,0.00,VWS V14.01,2013-11-15 03:27:00,
2013-11-14 22:32:00,25.2,16.4,29.56,SW,225,0.0,0.0,69,0.00,,---,0.00,VWS V14.01,2013-11-15 03:32:00,
2013-11-14 22:37:00,25.2,16.4,29.56,SW,225,0.0,0.0,69,0.00,,---,0.00,VWS V14.01,2013-11-15 03:37:00,
2013-11-14 22:42:00,25.3,16.6,29.56,SW,225,0.0,0.0,69,0.00,,---,0.00,VWS V14.01,2013-11-15 03:42:00,
2013-11-14 22:47:00,25.3,16.6,29.56,SW,225,0.0,0.0,69,0.00,,---,0.00,VWS V14.01,2013-11-15 03:47:00,
2013-11-14 22:52:00,25.0,16.3,29.56,SW,225,0.0,0.0,69,0.00,,---,0.00,VWS V14.01,2013-11-15 03:52:00,
2013-11-14 22:58:00,24.8,16.4,29.56,SW,225,0.0,0.0,70,0.00,,---,0.00,VWS V14.01,2013-11-15 03:58:00,
2013-11-14 23:03:00,24.8,16.4,29.56,SW,225,0.0,0.0,70,0.00,,---,0.00,VWS V14.01,2013-11-15 04:03:00,
2013-11-14 23:08:00,24.8,16.4,29.56,SW,225,0.0,0.0,70,0.00,,---,0.00,VWS V14.01,2013-11-15 04:08:00,
2013-11-14 23:13:00,24.8,16.4,29.56,SW,225,0.0,0.0,70,0.00,,---,0.00,VWS V14.01,2013-11-15 04:13:00,
2013-11-14 23:18:00,24.8,16.8,29.56,SW,225,0.0,0.0,71,0.00,,---,0.00,VWS V14.01,2013-11-15 04:18:00,
2013-11-14 23:23:00,24.6,16.6,29.56,SW,225,0.0,0.0,71,0.00,,---,0.00,VWS V14.01,2013-11-15 04:23:00,
2013-11-14 23:29:00,24.6,16.6,29.56,SW,225,0.0,0.0,71,0.00,,---,0.00,VWS V14.01,2013-11-15 04:29:00,
2013-11-14 23:36:00,24.4,16.4,29.56,SW,225,0.0,0.0,71,0.00,,---,0.00,VWS V14.01,2013-11-15 04:36:00,
2013-11-14 23:42:00,24.4,16.7,29.56,SW,225,0.0,0.0,72,0.00,,---,0.00,VWS V14.01,2013-11-15 04:42:00,
2013-11-14 23:47:00,24.4,16.4,29.56,SW,225,0.0,0.0,71,0.00,,---,0.00,VWS V14.01,2013-11-15 04:47:00,
2013-11-14 23:52:00,24.4,16.7,29.56,SW,225,0.0,0.0,72,0.00,,---,0.00,VWS V14.01,2013-11-15 04:52:00,
2013-11-14 23:58:00,24.4,16.7,29.56,SW,225,0.0,0.0,72,0.00,,---,0.00,VWS V14.01,2013-11-15 04:58:00,